time,Rome,Berlin,London,Paris,Madrid,Athens,Oslo
2014-01-01 12:00:00,0.5796512048641659,0.2161416051858054,0.004668926367597395,0.03282074881000985,0.05763039738938531,0.06412083969005829,0.014819212488307101
2014-01-02 12:00:00,0.2588215884767355,0.08599670313025785,0.4292600443072696,0.38100942379706426,0.023104495478117677,0.26494497830664737,0.0009245924998554984
2014-01-03 12:00:00,0.41659312475425814,0.31763086053175005,0.24150492286513536,0.3093950597768978,0.023635546204532863,0.4895431517502403,0.004678787071174132
2014-01-04 12:00:00,0.06420566331665313,0.20950304552344964,0.012583255918928175,0.11530500230728241,0.07755627696793022,0.48816579598709575,0.014933880554058624
2014-01-05 12:00:00,0.12721787168120532,0.06620429785946172,0.11438990731660519,0.24789530129014084,0.4327630518449895,0.5882915169373751,0.04701019705761537
2014-01-06 12:00:00,0.6087986049609532,0.10518970858373795,0.21067853537195713,0.3483759253223396,0.23920286757061693,0.12238977810718113,0.0015879410957123964
2014-01-07 12:00:00,0.5538221477317681,0.4096932716214629,0.23701782285102857,0.17309005262590976,0.23520292563848635,0.06157880841987469,0.01191211361717438
2014-01-08 12:00:00,0.5464210952455502,0.15696842690581417,0.23262599514459728,0.1558257692632016,0.5181429604459188,0.33499114618957,0.009948829800802191
2014-01-09 12:00:00,0.41231675572871357,0.17878482277797722,0.17194413268667383,0.0540996650899202,0.4039666929953335,0.6115765477524859,0.02030268246334172
2014-01-10 12:00:00,0.1975594764663855,0.20762848143114418,0.3301618044171516,0.10553678542800199,0.4284386773763395,0.62213951376247,0.10413702130848845
2014-01-11 12:00:00,0.379690488152145,0.33998926348764213,0.4561451685476918,0.493905322090325,0.33677398839632156,0.6244078399963172,0.014755072105248382
2014-01-12 12:00:00,0.27546380681183735,0.2824176150872849,0.07821424953616495,0.08284627818139466,0.31406276678746275,0.4964818379541941,0.2686064605919604
2014-01-13 12:00:00,0.6033142700494071,0.32245544327157855,0.3955339593988914,0.29545670577678096,0.48718266063868254,0.23350631175882858,0.061381821426936836
2014-01-14 12:00:00,0.02948079754177018,0.11260220768146924,0.36739500304376776,0.3627388583292151,0.07340812493423246,0.4329653136978764,0.02780779073883391
2014-01-15 12:00:00,0.48587722332285943,0.07321795542061534,0.017939168015642236,0.03926043385864121,0.261406825634353,0.1808249819561304,0.025403357343313105
2014-01-16 12:00:00,0.34500033885624615,0.03350335270986128,0.3322688125425882,0.36729336471465923,0.3149864134484619,0.36034061888984414,0.020219285825803752
2014-01-17 12:00:00,0.06242898471627362,0.2939035219946817,0.2879767060594279,0.29644134057172833,0.3051799297487782,0.6473138007559516,0.028730371719038104
2014-01-18 12:00:00,0.49861482447948335,0.3505058157229932,0.323859077614253,0.3957759703395284,0.19044243621129534,0.3786441512638776,0.0869409625275695
2014-01-19 12:00:00,0.3158812982101664,0.03681202344829137,0.17682931141461927,0.3172256503585009,0.22403512540931353,0.5582976899424299,0.03364121783302565
2014-01-20 12:00:00,0.12930353817745383,0.010821853739560672,0.27999334186107266,0.33134514751667016,0.5308667729771366,0.643037819111002,0.12548646167373825
2014-01-21 12:00:00,0.5015250135668865,0.03887703726621378,0.2537441824545267,0.10423860839932764,0.44748018689529884,0.6175470834177517,0.06070832865044833
2014-01-22 12:00:00,0.29301278451732093,0.11569700282124433,0.2048838814637594,0.15958854770395123,0.4795582920136196,0.6207867470545734,0.06010489089179318
2014-01-23 12:00:00,0.28576201049352207,0.3359401826630095,0.10841694159384108,0.34739046205223306,0.5775449919789895,0.6553118447171911,0.06002604223776011
2014-01-24 12:00:00,0.20424978706208569,0.3595158368176714,0.08365849552904149,0.048057557191262056,0.5689007306393774,0.0735946170704772,0.07344144117429652
2014-01-25 12:00:00,0.6261689776229714,0.558342011465389,0.27880622789335785,0.05336452684279732,0.5434271768185288,0.3390678640523763,0.03670409135354503
2014-01-26 12:00:00,0.46454163907530155,0.5405321740818815,0.01747802474461712,0.0750647829071488,0.5056059650649587,0.3153817462610411,0.196436093062753
2014-01-27 12:00:00,0.10828496885262599,0.08047373259395968,0.3425450206750601,0.17571540278690345,0.5829627607025604,0.245896909679239,0.051424179526280984
2014-01-28 12:00:00,0.6174404908470889,0.3204259828917545,0.2681270352332522,0.1401591121932011,0.21109853954282407,0.1597054815157378,0.03835476350234608
2014-01-29 12:00:00,0.47215335116037865,0.17009460848557625,0.03834372469101486,0.07201821676478434,0.5833754031703102,0.6723200048159894,0.05986996480557992
2014-01-30 12:00:00,0.040630402776933375,0.44374096183929157,0.08257109486875185,0.3331195131054699,0.5475162571109028,0.5073808465696227,0.049954317401388934
2014-01-31 12:00:00,0.07206185913156654,0.07576219595302075,0.07456975564062433,0.2723965959865616,0.3483018593987082,0.4006342748214655,0.051767478938703995
2014-02-01 12:00:00,0.4237291373571572,0.3946703064713562,0.5179076628629724,0.16262622231400517,0.5640415915220022,0.23101754272805142,0.0465471322872711
2014-02-02 12:00:00,0.03367492611285143,0.12459734853451261,0.4953497585253303,0.5617477403687684,0.7073587102449387,0.11013614499701094,0.0787085783096086
2014-02-03 12:00:00,0.3269914316789178,0.14249777165693325,0.3625475761450868,0.6024175575764642,0.18153033579916739,0.15725169448097023,0.09407360667987714
2014-02-04 12:00:00,0.15893159114435576,0.5449744163166943,0.4224974206841221,0.20144629953488064,0.1919466939738975,0.3711040484436473,0.03522696151272541
2014-02-05 12:00:00,0.2267099521067847,0.5404836755092742,0.2640322265250307,0.28322896224660193,0.444087631209821,0.31241170769882315,0.05241649963177296
2014-02-06 12:00:00,0.37712671681136306,0.4788724433095262,0.037901385678392144,0.021210101633934775,0.0633995276299972,0.2603511947488427,0.08039622734218795
2014-02-07 12:00:00,0.6294351030828975,0.23690435557414563,0.2993551916333557,0.5032148149942223,0.50832004783105,0.22529681206190186,0.034893716943588476
2014-02-08 12:00:00,0.4616142985938674,0.19048154703868245,0.44093001692550327,0.18866501285761791,0.06534615131071161,0.6290581715735559,0.26263709042150973
2014-02-09 12:00:00,0.5677376237879441,0.3932916699148392,0.2278981724185395,0.5018318739724916,0.18149396627760422,0.6262873248756772,0.039063696537700345
2014-02-10 12:00:00,0.08275768773828435,0.5810245145698625,0.20947868197467104,0.2711498896788999,0.6945597017437821,0.691567478799282,0.07873698836185497
2014-02-11 12:00:00,0.07287648833877759,0.30054321669419115,0.028722573730037636,0.2449198712870317,0.07563731200791207,0.6289801495002889,0.07674392420232384
2014-02-12 12:00:00,0.34148701419009814,0.36902117236183785,0.10128710716390116,0.6328094576953361,0.25430150644237265,0.6492451365668892,0.20666083472164315
2014-02-13 12:00:00,0.4645774134120354,0.5403341631086391,0.4350074406850019,0.2656349392868776,0.2438412573518815,0.5790807431174704,0.05393879858685269
2014-02-14 12:00:00,0.6368496473636154,0.17757619737845226,0.03952983729578537,0.029690087001960616,0.3923577257253961,0.6208438963413949,0.057272242754862916
2014-02-15 12:00:00,0.6666461783822882,0.1409095691200773,0.44577762248514646,0.2783061144203513,0.16292829124426153,0.5080988628253276,0.043318784495644386
2014-02-16 12:00:00,0.6197123002257925,0.5469901858779722,0.6280743328301815,0.3403658711178456,0.7322026293377799,0.7056850670260767,0.05328822268911403
2014-02-17 12:00:00,0.6742169274823507,0.5257785541674664,0.24931607481810933,0.1841900642423955,0.5592146463894152,0.7109769850154358,0.4867318565229542
2014-02-18 12:00:00,0.669558415389209,0.46692700643487284,0.31020242859793434,0.4453882420249832,0.6917570913150922,0.6871029654178775,0.5874984197325802
2014-02-19 12:00:00,0.5157143036431359,0.32500787032254413,0.15509557003947733,0.14592576333160792,0.7325387527511945,0.7198652523874127,0.16360338974399943
2014-02-20 12:00:00,0.3432309136800042,0.4869274343143345,0.012936042622167136,0.04464690146752799,0.6521185961535836,0.5967678192749043,0.10417128068528267
2014-02-21 12:00:00,0.5782857057819506,0.07321778957263861,0.5050558630357668,0.46621704061059854,0.5838165882095473,0.5062873717641273,0.08315138927783187
2014-02-22 12:00:00,0.5331485745445322,0.6255925245755676,0.6042204705654222,0.1463965526028072,0.574698751117112,0.709457885070249,0.11178300974978213
2014-02-23 12:00:00,0.6021919286943285,0.6179383627142533,0.33447678944708364,0.5765917242618648,0.736417179535107,0.647431960346186,0.06515648290755807
2014-02-24 12:00:00,0.7346704951445966,0.6368897643809587,0.3732132908728638,0.6348690811853739,0.6152080001781226,0.3841868731035868,0.09690813557078429
2014-02-25 12:00:00,0.718053077540829,0.6328142766291555,0.4685333764592237,0.4823161407486639,0.4255542586462223,0.6289544843266898,0.2555298479308977
2014-02-26 12:00:00,0.3258408379207666,0.44699967821333547,0.5863126252906223,0.4650647163001148,0.7121567797696329,0.3665350052924918,0.043168266620991984
2014-02-27 12:00:00,0.5086629535483199,0.6133342305548961,0.6044255012595978,0.03560937699766794,0.13395603526344205,0.6726036133811393,0.08292786091988795
2014-02-28 12:00:00,0.12400178922853498,0.39152303508235625,0.1366793165506416,0.30937955767541375,0.47378165128839866,0.32550872698777,0.0944881975923938
2014-03-01 12:00:00,0.39117704182749197,0.5722132919921534,0.5087995834708994,0.37172234746572597,0.0784082701318986,0.07286931754278766,0.09518937890265027
2014-03-02 12:00:00,0.43368469833517054,0.37902888087746095,0.19974860298745184,0.4287741541773694,0.39565682322093826,0.7042043115678578,0.09633113232474251
2014-03-03 12:00:00,0.39176581533646704,0.5853911796930787,0.335432225702932,0.5523495952631335,0.6669611869395475,0.029754382105858172,0.06371564087653192
2014-03-04 12:00:00,0.27405657587490123,0.43687992302317824,0.42012267613808146,0.36039734434361104,0.5439534493788415,0.6729414938638624,0.049409548155633684
2014-03-05 12:00:00,0.39616102510702056,0.40342161208083066,0.6655173634954442,0.6607364577817734,0.5734879765122468,0.7170574464568015,0.06730048379243292
2014-03-06 12:00:00,0.6442904018432327,0.12543111076806182,0.42513810057405915,0.6941525012164622,0.765275989690399,0.586368640300973,0.1617244863874785
2014-03-07 12:00:00,0.7438706753290288,0.4329111851031763,0.11773159750373859,0.682472219238141,0.7658930524343067,0.5893315765500847,0.015643464125725662
2014-03-08 12:00:00,0.5605090127998853,0.6782384374321555,0.46596067283212605,0.7146497965037012,0.7878726785835736,0.5252326387909257,0.6302683769711287
2014-03-09 12:00:00,0.6909309926966897,0.6630349670850401,0.6768206546279272,0.7047161588598347,0.7943653447088949,0.4852132396967662,0.5635015584522477
2014-03-10 12:00:00,0.711411183538837,0.6580299487447248,0.5552460469275032,0.7098059148101785,0.7887000658527393,0.1406711390570844,0.6462149246992549
2014-03-11 12:00:00,0.5177930252204949,0.6656737143296801,0.30798852511327907,0.7157393737876071,0.7818153149571409,0.47315453458820494,0.608285900086316
2014-03-12 12:00:00,0.7651840240175187,0.6713219894027902,0.5862059358483575,0.7221617888412458,0.7855939823340884,0.7021911018647548,0.6497808582525824
2014-03-13 12:00:00,0.7567591478945553,0.6697465026136921,0.6308205181526054,0.7159470106758866,0.7085485151547705,0.7363451206820658,0.6448554931508212
2014-03-14 12:00:00,0.7427961750810143,0.6433700989724606,0.6489548517861795,0.7159698730962939,0.7837547590933659,0.759912981739126,0.17352202440452646
2014-03-15 12:00:00,0.747600971299473,0.5304859197028952,0.5909052431943905,0.33091121106418225,0.7840779131620698,0.7766580157291967,0.6910134839310239
2014-03-16 12:00:00,0.751137571347029,0.11090829521982126,0.6591161588131326,0.7198574058593599,0.7578396571801547,0.7232177363440059,0.4364307046205202
2014-03-17 12:00:00,0.7505250902051388,0.1000436554957142,0.2923553309526071,0.38697278321061335,0.7681573608542852,0.730088070764859,0.7026743400403587
2014-03-18 12:00:00,0.7509794467897077,0.37784012869910577,0.30435500823105327,0.24878374795224667,0.7517906934374541,0.7416615005092143,0.4889207210223672
2014-03-19 12:00:00,0.7216830549059335,0.3284000087571988,0.47864083966593146,0.6634499351036701,0.7575119219794049,0.7443103535316238,0.17513135913302097
2014-03-20 12:00:00,0.7462943378524436,0.6773324340419876,0.4167971392867743,0.7290155501299765,0.7357687241473018,0.7462176176380393,0.3244184955932477
2014-03-21 12:00:00,0.5536294024393843,0.6327444394059316,0.6266838900615516,0.43485379322606943,0.5022552126586423,0.741817390898151,0.6942231098906043
2014-03-22 12:00:00,0.47612572885998666,0.22036495944838658,0.624784270571536,0.4315351046439529,0.41700640653551463,0.7540284769732808,0.20641390972094487
2014-03-23 12:00:00,0.3907292359380132,0.3266618826602457,0.5573222792483624,0.6306245340422493,0.7205980891949042,0.7457043298329777,0.28033318765124243
2014-03-24 12:00:00,0.3652435714383104,0.3312363621553797,0.5425478974778828,0.6170923879145599,0.4011444932311221,0.5780854156277958,0.5848057169655329
2014-03-25 12:00:00,0.3863446630392525,0.3893442052532951,0.10090246750756693,0.11260424092812203,0.562874825370053,0.7546397805479411,0.7178599513085224
2014-03-26 12:00:00,0.5613657449421869,0.641143706070207,0.41827366798658866,0.7491914614807385,0.6838809004044255,0.5488048742479167,0.12282128237678783
2014-03-27 12:00:00,0.39657896059882664,0.6781437788258715,0.6029163820325248,0.7196229311914473,0.6577767704829848,0.6800210581204389,0.2735596490370338
2014-03-28 12:00:00,0.6493259950938493,0.23422982219024915,0.5662968466820162,0.7002368017788861,0.5778588794236538,0.73777258438904,0.6838692929860871
2014-03-29 12:00:00,0.7758634334666719,0.4795217584498438,0.7248517717711066,0.734144353517915,0.3894496658925525,0.6408905677454353,0.6848295189636845
2014-03-30 12:00:00,0.7692797719713245,0.714826773081951,0.696509987895301,0.6656972667467741,0.6075233225325939,0.7751284900383729,0.6908654925917149
2014-03-31 12:00:00,0.7418553263929333,0.6429364649457562,0.5769259395659139,0.7282757103787733,0.29697610361660365,0.7424579412446286,0.5750871267713338
2014-04-01 12:00:00,0.7744372164398761,0.6014582124554647,0.5305331807219701,0.6790662647684569,0.6613559093395711,0.7513384168518811,0.6601966152559627
2014-04-02 12:00:00,0.5677207108758063,0.5899702014842916,0.39808193166168765,0.5863623953878685,0.19255472918349462,0.6514856672590674,0.5241781429604916
2014-04-03 12:00:00,0.4062254540735377,0.6494595427360393,0.5522177915110036,0.4069055401101264,0.6410146350926299,0.6756506691409314,0.6304163436365025
2014-04-04 12:00:00,0.4947896547832756,0.6667902006059302,0.5146995023423534,0.3921824777709306,0.797295837604341,0.6808905771633033,0.6279751634935261
2014-04-05 12:00:00,0.5218414068340572,0.4530595761681397,0.2832901933255309,0.7019149295591353,0.27062113151310974,0.4884703702300951,0.44156978105357747
2014-04-06 12:00:00,0.7651848026214211,0.41865049282269895,0.12504037518110675,0.12298376810712414,0.7317754227368184,0.5921074338256178,0.5943017262673652
2014-04-07 12:00:00,0.7584265611833485,0.39683121567300333,0.23778379689096008,0.34180604010305815,0.769393059791936,0.5364154420253953,0.4957433742633777
2014-04-08 12:00:00,0.7562812461453493,0.5844814292040469,0.47172722469792344,0.2986763423589083,0.7750179941957713,0.6429389669534451,0.015105654762359123
2014-04-09 12:00:00,0.3314374378213432,0.46149389336091673,0.6212835671568018,0.4754122848330233,0.7749211064507693,0.6951237227494786,0.13029475322070394
2014-04-10 12:00:00,0.626810526981649,0.20140860498902916,0.6254080254504067,0.7742641589093593,0.7660997539045944,0.6102448181182598,0.13643318450217173
2014-04-11 12:00:00,0.7699674871322824,0.2525236570714489,0.3799147350978793,0.7376843496426396,0.757213839137046,0.7558240657822038,0.7582391388457445
2014-04-12 12:00:00,0.5825988032395965,0.5890420521372369,0.6073860135396113,0.5765315464797122,0.6740755852892946,0.6876938957928851,0.07717470736263819
2014-04-13 12:00:00,0.5842792993339784,0.5091660655801615,0.7598342386059321,0.40734062068373306,0.733576612896083,0.4298994254091063,0.6459178697711553
2014-04-14 12:00:00,0.7413240464351851,0.4446318849195315,0.6807135843766776,0.5697682330426095,0.7517454425905916,0.5804772525078309,0.6868892440643972
2014-04-15 12:00:00,0.4621055552603171,0.4743762231606342,0.7097168648367066,0.7568064742478444,0.6891598714742202,0.7350940109966141,0.4408792099904428
2014-04-16 12:00:00,0.8025768731135586,0.7637451815732116,0.7882128091276301,0.8023058117317293,0.7134770056164578,0.5623033314247039,0.4598872449175279
2014-04-17 12:00:00,0.6586877561612469,0.6840872243943308,0.708834908128833,0.7955081603098798,0.7283893041801974,0.25683784000697335,0.06885322881723861
2014-04-18 12:00:00,0.7179049845576602,0.49978803919090276,0.5195919612545501,0.4435804101340119,0.7844642273525816,0.6948703072412308,0.5961734522189571
2014-04-19 12:00:00,0.33549914240935635,0.6807325173692371,0.30835029852091306,0.6415518114849319,0.6031767730312178,0.5718175827355279,0.7033509323659165
2014-04-20 12:00:00,0.5311251216647487,0.6388281351150339,0.2830199339322918,0.5684246985791939,0.566687221448775,0.7205071769014775,0.5992151830261745
2014-04-21 12:00:00,0.7702545000190952,0.5649980952563167,0.6790816080727318,0.25494286234527325,0.24787430164118296,0.3057809624008041,0.7306673280885271
2014-04-22 12:00:00,0.56650570515447,0.5787979875865777,0.3968235224926242,0.6101907915314717,0.5546670322800248,0.7081534903455962,0.7306654819628485
2014-04-23 12:00:00,0.6015714064314546,0.5149536089781088,0.563967975358641,0.5785168165677838,0.45879896685298865,0.4822028148634387,0.7491292938740852
2014-04-24 12:00:00,0.673469572926117,0.3485485969556129,0.37921125547927387,0.6047213129144758,0.673275568472028,0.5760766019475517,0.5962260013351156
2014-04-25 12:00:00,0.7109520954032346,0.7218491336739381,0.1319445572579978,0.14371877997052512,0.822475680326907,0.6097145383384522,0.7291584489909106
2014-04-26 12:00:00,0.5170232242322825,0.6070410893489462,0.33714388443246485,0.08594047516676737,0.2411419143183877,0.4481449653045056,0.7240847387460062
2014-04-27 12:00:00,0.3726262370968225,0.5056572472616866,0.5562591493246032,0.5310980746712558,0.803120685926938,0.5265294116772715,0.7205461471970577
2014-04-28 12:00:00,0.5021705917463363,0.5364398415822041,0.5154527523303364,0.4458563522120594,0.763143637279417,0.5992205290408432,0.7124996181450451
2014-04-29 12:00:00,0.5494336045128506,0.6581799556806898,0.3567347805504587,0.511709214598069,0.7616009258776093,0.6071611985447448,0.2616313650038319
2014-04-30 12:00:00,0.6178931364254451,0.7366305829646712,0.6479382005189827,0.5158067091301465,0.6781913131908859,0.6268108247608067,0.570127445339996
2014-05-01 12:00:00,0.6722924812403396,0.7059935506879863,0.13055676877889374,0.15682383660039367,0.7723370677174182,0.7009719409708222,0.5299780794190336
2014-05-02 12:00:00,0.33059924857543926,0.15104099960388429,0.3287299771496436,0.3518679306170261,0.7763729672963756,0.6109136520541892,0.3962038044615164
2014-05-03 12:00:00,0.6006479835460193,0.6649358451297162,0.6617653119443137,0.5435101030939096,0.8017829460957441,0.7148482441284638,0.5347544601912391
2014-05-04 12:00:00,0.37777563057543156,0.26967072529460634,0.4173000432034564,0.7350143343672061,0.8049442039340693,0.5892925067041607,0.39181476471183085
2014-05-05 12:00:00,0.7763880194180615,0.303339083695402,0.6997497075738672,0.790341489239232,0.7817119886465128,0.5970017580278586,0.2950545661777394
2014-05-06 12:00:00,0.7585517044926224,0.4241997506324905,0.6348165983565002,0.3534334121838892,0.702540118357864,0.5358306638788517,0.054055044474612166
2014-05-07 12:00:00,0.7415403991104106,0.4420930168124673,0.43529320917003345,0.5480205544487706,0.5544669184291761,0.7261403076061447,0.10667429571371691
2014-05-08 12:00:00,0.755178749065906,0.3753089389821312,0.11093121072376538,0.2099206129438445,0.7373159510389553,0.725395616756259,0.15199246917757767
2014-05-09 12:00:00,0.7439322771584372,0.4087536019047337,0.7272314460179663,0.5064214938796449,0.702876631084689,0.6223477120422866,0.23823724781128883
2014-05-10 12:00:00,0.7411261901344306,0.5434981133006513,0.5900323840894723,0.05041924212260303,0.6763301221001138,0.5205400247486666,0.5091832773624096
2014-05-11 12:00:00,0.6386412449419164,0.7202895749513158,0.440145067675985,0.7398252357425193,0.7512659662512076,0.6271462857662904,0.25321288830940714
2014-05-12 12:00:00,0.5882847473769129,0.20541755678692206,0.6849235941424373,0.6338822227339815,0.7662046861706028,0.5639511601387815,0.27255452391033147
2014-05-13 12:00:00,0.3250851699692709,0.5527723778645004,0.5872821839686775,0.5799113729848376,0.794744504555419,0.672829848502713,0.34884686277070875
2014-05-14 12:00:00,0.7456513722507245,0.5582203891358556,0.6334571705943634,0.5878771114397398,0.7977565962744185,0.6968480416673345,0.8192777973735641
2014-05-15 12:00:00,0.7393062799024485,0.4303541213699627,0.377275022867245,0.7485516885206686,0.7239134038464822,0.6866914693459414,0.328888924435526
2014-05-16 12:00:00,0.4646648843069629,0.46329777977216063,0.6279493036994643,0.7213568743118439,0.7744846323710957,0.6989217762912157,0.7057384286322187
2014-05-17 12:00:00,0.7167174726782859,0.6806816924808831,0.5828324347392239,0.765837358737185,0.7881575021737098,0.6460567440276721,0.38394875336955103
2014-05-18 12:00:00,0.7504260088939219,0.19868591867404137,0.7381432993830239,0.757875506223984,0.7652201199981515,0.6140141845373789,0.7456589958276961
2014-05-19 12:00:00,0.4048980933463777,0.3480941830305794,0.6244372962889078,0.7465384761416034,0.6510250139054634,0.4517282754389815,0.516745318852723
2014-05-20 12:00:00,0.6834418849497956,0.704598397581813,0.4463214134688983,0.4044974016293919,0.40298902808933557,0.5248491402796597,0.5615231755592475
2014-05-21 12:00:00,0.6478046200066286,0.6277181223840337,0.6369659861846709,0.30866732966522875,0.7439572086672585,0.684554956408702,0.6158303380731552
2014-05-22 12:00:00,0.7281821433628423,0.7059223429023322,0.4869946616742965,0.6222173900207314,0.5410274251188306,0.45206850484876604,0.49516589003809663
2014-05-23 12:00:00,0.27948830281371656,0.42130660481087595,0.6714940458779083,0.39852666511466833,0.6442360927838265,0.6565444024696543,0.33079704999450144
2014-05-24 12:00:00,0.7233041818318372,0.27241674411321576,0.5662356403338886,0.5706691485200117,0.7373167559231314,0.6695483436292546,0.41256054621670424
2014-05-25 12:00:00,0.6667635543491642,0.4691213701806006,0.71042537639863,0.5142263946875243,0.7276915292719216,0.4208897937120257,0.12435967281450912
2014-05-26 12:00:00,0.6853843031593363,0.618626089879954,0.4043665622093652,0.23853796617679032,0.7649604439340936,0.6495941168122417,0.5428259720248557
2014-05-27 12:00:00,0.6662488522234081,0.18824962134021683,0.13934875659990242,0.6121813720053189,0.594202214300383,0.6791715189069487,0.6574606072585747
2014-05-28 12:00:00,0.41806981063740156,0.030737373307945758,0.043025725348617684,0.15943183594285928,0.6523759934418768,0.6713577817074089,0.7780384803285275
2014-05-29 12:00:00,0.7400784938656931,0.2649494784706953,0.557561645134516,0.5902730467695918,0.420274363645368,0.4053667725677371,0.7716931286999298
2014-05-30 12:00:00,0.6231541748551135,0.6698943238569864,0.2839845862954601,0.4956268359562263,0.6359728522173456,0.5388744734490806,0.7732345563188348
2014-05-31 12:00:00,0.5109899748371433,0.7221796339898022,0.3720915371229525,0.5747739697424792,0.7469304732526632,0.5164442840181935,0.7545753741968195
2014-06-01 12:00:00,0.7176062016144356,0.7009446210172151,0.43779765585965913,0.40606738709973134,0.6256719739500489,0.5515532630905774,0.7608678402999025
2014-06-02 12:00:00,0.6220248910336159,0.4761403749510596,0.43786872239889496,0.39910471762476096,0.7730304311933869,0.6406784592467358,0.54580139831619
2014-06-03 12:00:00,0.6755909877407795,0.3182749971084407,0.30710544753583474,0.5032311951493545,0.7492407436675418,0.4960480676981458,0.49500195202478087